This is the latest recevied weather packets stored in our database for station/object KD8OZS. If no packets are shown the sender has not sent any weather packets the latest 10 day(s).
| Time | Temp. | Humidity | Pressure | Rain* | Wind** | Luminosity | Snow |
|---|---|---|---|---|---|---|---|
| 1778224837 | 7.78° C | 81% | 1005.8 hPa | 0 mm | - | 0 W/m² | - |
| 1778224535 | 7.78° C | 81% | 1005.7 hPa | 0 mm | - | 0 W/m² | - |
| 1778224233 | 7.78° C | 81% | 1005.9 hPa | 0 mm | - | 0 W/m² | - |
| 1778223930 | 7.78° C | 81% | 1005.7 hPa | 0 mm | - | 0 W/m² | - |
| 1778223628 | 7.78° C | 80% | 1006 hPa | 0 mm | - | 0 W/m² | - |
| 1778223325 | 7.78° C | 81% | 1005.9 hPa | 0 mm | - | 0 W/m² | - |
| 1778223024 | 7.78° C | 79% | 1005.7 hPa | 0 mm | - | 0 W/m² | - |
| 1778222721 | 7.78° C | 81% | 1006 hPa | 0 mm | - | 0 W/m² | - |
| 1778222418 | 7.22° C | 85% | 1005.9 hPa | 0 mm | - | 0 W/m² | - |
| 1778222116 | 7.22° C | 86% | 1006 hPa | 0 mm | - | 0 W/m² | - |
| 1778221813 | 7.78° C | 86% | 1006 hPa | 0 mm | - | 0 W/m² | - |
| 1778221511 | 7.78° C | 85% | 1006.2 hPa | 0 mm | - | 0 W/m² | - |
| 1778221207 | 7.78° C | 84% | 1006.1 hPa | 0 mm | - | 0 W/m² | - |
| 1778220906 | 7.78° C | 83% | 1006.2 hPa | 0 mm | - | 0 W/m² | - |
| 1778220601 | 7.22° C | 85% | 1006.2 hPa | 0 mm | - | 0 W/m² | - |
| 1778220299 | 7.22° C | 86% | 1006.4 hPa | 0 mm | - | 0 W/m² | - |
| 1778219995 | 7.22° C | 87% | 1006.4 hPa | 0 mm | - | 0 W/m² | - |
| 1778219692 | 7.22° C | 87% | 1006.1 hPa | 0 mm | - | 0 W/m² | - |
| 1778219388 | 6.67° C | 87% | 1006.1 hPa | 0 mm | - | 0 W/m² | - |
| 1778219085 | 6.67° C | 86% | 1006 hPa | 0 mm | - | 0 W/m² | - |
| 1778218782 | 6.67° C | 86% | 1005.9 hPa | 0 mm | - | 0 W/m² | - |
| 1778218479 | 6.67° C | 87% | 1005.9 hPa | 0 mm | - | 0 W/m² | - |
| 1778218177 | 6.67° C | 87% | 1005.9 hPa | 0 mm | - | 0 W/m² | - |
| 1778217874 | 6.67° C | 87% | 1005.8 hPa | 0 mm | - | 0 W/m² | - |
| 1778217266 | 6.67° C | 86% | 1006 hPa | 0 mm | - | 0 W/m² | - |
* Rain latest hour (hover to see other rain measurements)
** Current wind speed in m/s (hover to see current wind gust speed)